Regional Weather Roundup
Issued by NWS

Home | Current Version | Previous Version | Text Only | Print | Product List | Glossary On
Versions: 1 2 3 4 5 6 7 8 9 10 11 12 13 14 15 16 17 18 19 20 21 22 23 24 25 26 27 28 29 30 31 32 33 34 35 36 37 38 39 40 41 42 43 44 45 46 47 48 49 50
000
ASUS45 KREV 291910
RWRNV
NEVADA REGIONAL WEATHER ROUNDUP
NATIONAL WEATHER SERVICE RENO NV
1200 PM PDT FRI MAY 29 2015

NOTE: "FAIR" INDICATES FEW OR NO CLOUDS BELOW 12,000 FEET WITH NO
SIGNIFICANT WEATHER AND/OR OBSTRUCTIONS TO VISIBILITY.

NVZ001-003-004-292000-
WESTERN NEVADA

CITY           SKY/WX    TMP DP  RH WIND       PRES   REMARKS
RENO           PTSUNNY   83  34  17 VRB7      30.06F
CARSON CITY    FAIR      79  36  21 SE5       30.09F
MINDEN         FAIR      77  37  24 NW7       30.08
SLIDE MTN        N/A     55  32  41 SE13        N/A
PYRAMID LAKE     N/A     73 N/A N/A VRB8        N/A
FALLON         NOT AVBL
LOVELOCK       SUNNY     81  37  20 E5        30.06F
HAWTHORNE      SUNNY     79  36  21 CALM      30.06F
$$

NVZ002-CAZ072-073-292000-
NORTHERN AND CENTRAL SIERRA

CITY           SKY/WX    TMP DP  RH WIND       PRES   REMARKS
S. LAKE TAHOE  SUNNY     71  41  33 VRB5      30.17F
TRUCKEE        SUNNY     73  34  23 SE12      30.16S
SQUAW VLY 8000   N/A     70  27  19 SE6         N/A
SUSANVILLE     SUNNY     79  46  31 NE6       30.06F
BLUE CANYON    SUNNY     70  31  23 S10       30.16S
MAMMOTH LAKES  FAIR      75  27  16 E6        30.23F
BRIDGEPORT     FAIR      74  25  16 CALM      30.16F
$$

NVZ030-031-036-292000-
NORTHERN NEVADA

CITY           SKY/WX    TMP DP  RH WIND       PRES   REMARKS
ELKO           SUNNY     73  36  25 CALM      30.16F
WINNEMUCCA     NOT AVBL
WENDOVER       SUNNY     70  43  37 E5        30.19F
$$

NVZ035-037-292000-
CENTRAL NEVADA

CITY           SKY/WX    TMP DP  RH WIND       PRES   REMARKS
ELY            PTSUNNY   70  38  31 VRB6      30.21F
EUREKA           N/A     74  36  25 NE9       30.18F
$$

NVZ013-014-292000-
SOUTH CENTRAL NEVADA

CITY           SKY/WX    TMP DP  RH WIND       PRES   REMARKS
TONOPAH        SUNNY     80  30  16 S10       30.14F
$$

NVZ017-020-022-292000-
SOUTHERN NEVADA

CITY           SKY/WX    TMP DP  RH WIND       PRES   REMARKS
LAS VEGAS      MOSUNNY   92  28  10 S9        29.93F
N. LAS VEGAS   SUNNY     91  22   8 VRB5      29.96F
NELLIS AFB     SUNNY     92  29  10 VRB1      29.94F
HENDERSON      SUNNY     90  34  13 VRB5      30.00F
MERCURY        SUNNY     90  29  11 VRB5      30.00F
$$


USA.gov is the U.S. government's official web portal to all federal, state and local government web resources and services.